Powrót do katalogu

METEOSAT 2

AktywnyPogodaGEO
NORAD 12544·PAYLOAD·🇪🇺 EU

Wystrzelony Jun 19, 1981 z Guiana Space Centre

Loading…

TLE

ŚwieżeSource: Space-Track

Epoka: Sep 14, 2026, 14:18 UTC

1 12544U 81057A   26257.59607443 -.00000106  00000-0  00000-0 0  9995
2 12544  10.1257 318.8240 0027673  16.2212 339.0049  0.98723599124725

Śledź METEOSAT 2 w czasie rzeczywistym z AllMySat

Download on the App Store